Weather History for KGVT - August, 2013

Change the Weather History Date:

Sunday, August 18, 2013

  Actual Average (KDFW) Record (KDFW)
Temperature  
Mean Temperature 76 °F 86 °F  
Max Temperature 91 °F 96 °F 112 °F (1909)
Min Temperature 62 °F 75 °F 65 °F (1992)
Degree Days  
Heating Degree Days 0 0  
Month to date heating degree days 0  
Since 1 June heating degree days 0  
Since 1 July heating degree days 0  
Cooling Degree Days 12 21  
Month to date cooling degree days 378  
Year to date cooling degree days 1922  
Since 1 June cooling degree days 1500  
Growing Degree Days 26 (Base 50)    
Moisture  
Dew Point 58 °F    
Average Humidity 59    
Maximum Humidity 88    
Minimum Humidity 26    
Precipitation  
Precipitation 0.00 in 0.06 in 3.47 in (1915)
Month to date precipitation 0.97  
Year to date precipitation 23.17  
Sea Level Pressure  
Sea Level Pressure 30.05 in    
Wind  
Wind Speed 1 mph (East)    
Max Wind Speed 8 mph    
Max Gust Speed 16 mph    
Visibility 10 miles    
Events      
T = Trace of Precipitation, MM = Missing Value Source: NWS Daily Summary

Daily Weather History Graph

Daily Weather History Graph

Search for Another Location

Airport or City:

Trip Planner

Search our weather history database for the weather conditions in past years. The results will help you decide how hot, cold, wet, or windy it might be!

Date:

Astronomy

Aug. 18, 2013 Rise Set
Actual Time 6:49 AM CDT 8:06 PM CDT
Civil Twilight 6:23 AM CDT 8:31 PM CDT
Nautical Twilight 5:52 AM CDT 9:02 PM CDT
Astronomical Twilight 5:20 AM CDT 9:34 PM CDT
Moon 6:10 PM CDT (8/18) 4:04 AM CDT (8/18)
Length of Visible Light 14h 08m
Length of Day
13h 16m
Waxing Gibbous, 92% of the Moon is Illuminated
Aug 18
Waxing Gibbous
Aug 20
Full
Aug 28
Last Quarter
Sep 5
New
Sep 12
First Quarter

Hourly Weather History & Observations

Time (CDT) Temp. Heat Index Dew Point Humidity Pressure Visibility Wind Dir Wind Speed Gust Speed Precip Events Conditions
12:15 AM 68.0 °F - 60.8 °F 78% 30.05 in 10.0 mi Calm Calm - N/A   Clear
12:35 AM 68.0 °F - 60.8 °F 78% 30.05 in 10.0 mi Calm Calm - N/A   Clear
12:55 AM 68.0 °F - 59.0 °F 73% 30.05 in 10.0 mi Calm Calm - N/A   Clear
1:15 AM 66.2 °F - 59.0 °F 78% 30.05 in 10.0 mi Calm Calm - N/A   Clear
1:35 AM 64.4 °F - 59.0 °F 83% 30.05 in 10.0 mi Calm Calm - N/A   Clear
1:55 AM 64.4 °F - 60.8 °F 88% 30.05 in 10.0 mi Calm Calm - N/A   Clear
2:15 AM 64.4 °F - 59.0 °F 83% 30.05 in 10.0 mi Calm Calm - N/A   Clear
2:35 AM 64.4 °F - 59.0 °F 83% 30.04 in 10.0 mi Calm Calm - N/A   Clear
2:55 AM 64.4 °F - 59.0 °F 83% 30.04 in 10.0 mi Calm Calm - N/A   Clear
3:15 AM 64.4 °F - 59.0 °F 83% 30.04 in 10.0 mi Calm Calm - N/A   Clear
3:35 AM 64.4 °F - 59.0 °F 83% 30.04 in 10.0 mi Calm Calm - N/A   Clear
3:55 AM 64.4 °F - 59.0 °F 83% 30.04 in 10.0 mi Calm Calm - N/A   Clear
4:15 AM 62.6 °F - 59.0 °F 88% 30.04 in 10.0 mi Calm Calm - N/A   Clear
4:35 AM 64.4 °F - 59.0 °F 83% 30.04 in 10.0 mi Calm Calm - N/A   Clear
4:55 AM 64.4 °F - 59.0 °F 83% 30.04 in 10.0 mi Calm Calm - N/A   Clear
5:15 AM 62.6 °F - 59.0 °F 88% 30.05 in 10.0 mi Calm Calm - N/A   Clear
5:35 AM 62.6 °F - 59.0 °F 88% 30.05 in 10.0 mi Calm Calm - N/A   Clear
5:55 AM 62.6 °F - 59.0 °F 88% 30.05 in 10.0 mi Calm Calm - N/A   Clear
6:15 AM 62.6 °F - 59.0 °F 88% 30.05 in 10.0 mi Calm Calm - N/A   Clear
6:35 AM 62.6 °F - 59.0 °F 88% 30.06 in 10.0 mi Calm Calm - N/A   Clear
6:55 AM 62.6 °F - 59.0 °F 88% 30.07 in 10.0 mi Calm Calm - N/A   Clear
7:15 AM 62.6 °F - 59.0 °F 88% 30.07 in 10.0 mi Calm Calm - N/A   Clear
7:35 AM 64.4 °F - 60.8 °F 88% 30.07 in 10.0 mi Calm Calm - N/A   Clear
7:55 AM 66.2 °F - 60.8 °F 83% 30.08 in 10.0 mi Calm Calm - N/A   Clear
8:15 AM 68.0 °F - 62.6 °F 83% 30.08 in 10.0 mi Calm Calm - N/A   Clear
8:35 AM 69.8 °F - 62.6 °F 78% 30.09 in 10.0 mi East 4.6 mph - N/A   Clear
8:55 AM 71.6 °F - 62.6 °F 73% 30.10 in 10.0 mi Calm Calm - N/A   Clear
9:15 AM 73.4 °F - 64.4 °F 73% 30.11 in 10.0 mi East 5.8 mph - N/A   Clear
9:35 AM 77.0 °F - 64.4 °F 65% 30.11 in 10.0 mi ENE 5.8 mph - N/A   Clear
9:55 AM 78.8 °F - 62.6 °F 57% 30.11 in 10.0 mi East 5.8 mph - N/A   Clear
10:15 AM 78.8 °F - 62.6 °F 57% 30.11 in 10.0 mi Calm Calm - N/A   Clear
10:35 AM 80.6 °F 81.8 °F 62.6 °F 54% 30.11 in 10.0 mi East 4.6 mph - N/A   Scattered Clouds
10:55 AM 80.6 °F 81.8 °F 62.6 °F 54% 30.11 in 10.0 mi Calm Calm - N/A   Scattered Clouds
11:15 AM 82.4 °F 82.9 °F 60.8 °F 48% 30.11 in 10.0 mi Calm Calm - N/A   Clear
11:35 AM 82.4 °F 82.9 °F 60.8 °F 48% 30.11 in 10.0 mi East 8.1 mph - N/A   Scattered Clouds
11:55 AM 82.4 °F 82.5 °F 59.0 °F 45% 30.10 in 10.0 mi NNE 4.6 mph - N/A   Scattered Clouds
12:15 PM 84.2 °F 83.8 °F 59.0 °F 42% 30.10 in 10.0 mi East 5.8 mph - N/A   Scattered Clouds
12:35 PM 87.8 °F 86.1 °F 55.4 °F 33% 30.09 in 10.0 mi ESE 6.9 mph - N/A   Scattered Clouds
12:55 PM 87.8 °F 85.7 °F 53.6 °F 31% 30.09 in 10.0 mi East 5.8 mph - N/A   Scattered Clouds
1:15 PM 87.8 °F 86.1 °F 55.4 °F 33% 30.08 in 10.0 mi East 3.5 mph - N/A   Scattered Clouds
1:35 PM 87.8 °F 85.7 °F 53.6 °F 31% 30.08 in 10.0 mi Calm Calm - N/A   Scattered Clouds
1:55 PM 87.8 °F 85.7 °F 53.6 °F 31% 30.07 in 10.0 mi Calm Calm - N/A   Scattered Clouds
2:35 PM 89.6 °F - 51.8 °F 27% 30.06 in 10.0 mi East 5.8 mph - N/A   Clear
2:55 PM 89.6 °F - 51.8 °F 27% 30.05 in 10.0 mi NNE 6.9 mph - N/A   Clear
3:15 PM 91.4 °F - 51.8 °F 26% 30.04 in 10.0 mi NNE 3.5 mph - N/A   Scattered Clouds
3:35 PM 91.4 °F - 51.8 °F 26% 30.04 in 10.0 mi East 8.1 mph - N/A   Scattered Clouds
3:55 PM 91.4 °F - 51.8 °F 26% 30.03 in 10.0 mi East 4.6 mph - N/A   Scattered Clouds
4:15 PM 91.4 °F - 51.8 °F 26% 30.03 in 10.0 mi East 6.9 mph 16.1 mph N/A   Scattered Clouds
4:35 PM 89.6 °F 87.3 °F 53.6 °F 29% 30.02 in 10.0 mi SSE 6.9 mph - N/A   Scattered Clouds
4:55 PM 91.4 °F - 51.8 °F 26% 30.02 in 10.0 mi SE 6.9 mph - N/A   Scattered Clouds
5:15 PM 91.4 °F - 51.8 °F 26% 30.02 in 10.0 mi East 5.8 mph - N/A   Scattered Clouds
5:35 PM 89.6 °F - 51.8 °F 27% 30.02 in 10.0 mi ESE 6.9 mph - N/A   Scattered Clouds
5:55 PM 89.6 °F - 51.8 °F 27% 30.02 in 10.0 mi SE 4.6 mph - N/A   Clear
6:15 PM 89.6 °F - 51.8 °F 27% 30.01 in 10.0 mi East 3.5 mph - N/A   Mostly Cloudy
6:35 PM 89.6 °F - 51.8 °F 27% 30.01 in 10.0 mi East 4.6 mph - N/A   Scattered Clouds
6:55 PM 87.8 °F - 51.8 °F 29% 30.01 in 10.0 mi ESE 4.6 mph - N/A   Clear
7:15 PM 87.8 °F - 51.8 °F 29% 30.00 in 10.0 mi Calm Calm - N/A   Clear
7:35 PM 86.0 °F 84.2 °F 53.6 °F 33% 30.00 in 10.0 mi Calm Calm - N/A   Clear
7:55 PM 84.2 °F 82.8 °F 53.6 °F 35% 30.00 in 10.0 mi Calm Calm - N/A   Clear
8:15 PM 78.8 °F - 55.4 °F 44% 30.01 in 10.0 mi Calm Calm - N/A   Clear
8:35 PM 75.2 °F - 59.0 °F 57% 30.01 in 10.0 mi Calm Calm - N/A   Clear
8:55 PM 75.2 °F - 60.8 °F 61% 30.01 in 10.0 mi Calm Calm - N/A   Clear
9:15 PM 73.4 °F - 60.8 °F 65% 30.02 in 10.0 mi Calm Calm - N/A   Clear
9:35 PM 71.6 °F - 60.8 °F 69% 30.02 in 10.0 mi Calm Calm - N/A   Clear
9:55 PM 69.8 °F - 60.8 °F 73% 30.02 in 10.0 mi Calm Calm - N/A   Clear
10:15 PM 71.6 °F - 60.8 °F 69% 30.03 in 10.0 mi Calm Calm - N/A   Clear
10:35 PM 71.6 °F - 60.8 °F 69% 30.03 in 10.0 mi Calm Calm - N/A   Clear
10:55 PM 71.6 °F - 59.0 °F 64% 30.03 in 10.0 mi Calm Calm - N/A   Clear
11:15 PM 73.4 °F - 57.2 °F 57% 30.04 in 10.0 mi Calm Calm - N/A   Clear
11:35 PM 73.4 °F - 57.2 °F 57% 30.04 in 10.0 mi Calm Calm - N/A   Clear
11:55 PM 73.4 °F - 59.0 °F 61% 30.04 in 10.0 mi Calm Calm - N/A   Clear